Weather History for KSRB - December, 2013

Change the Weather History Date:

Thursday, December 5, 2013

  Actual Average (KCSV) Record (KCSV)
Temperature  
Mean Temperature 55 °F 41 °F  
Max Temperature 69 °F 49 °F 69 °F (2013)
Min Temperature 41 °F 32 °F 16 °F (1991)
Degree Days  
Heating Degree Days 10    
Month to date heating degree days  
Since 1 July heating degree days  
Cooling Degree Days 0    
Month to date cooling degree days  
Year to date cooling degree days  
Growing Degree Days 5 (Base 50)    
Moisture  
Dew Point 54 °F    
Average Humidity 88    
Maximum Humidity 100    
Minimum Humidity 78    
Precipitation  
Precipitation 0.00 in 0.17 in 1.44 in (1954)
Month to date precipitation 0.88  
Year to date precipitation 51.02  
Sea Level Pressure  
Sea Level Pressure 29.97 in    
Wind  
Wind Speed 6 mph (SW)    
Max Wind Speed 14 mph    
Max Gust Speed -    
Visibility 9 miles    
Events      
T = Trace of Precipitation, MM = Missing Value Source: NWS Daily Summary

Daily Weather History Graph

Daily Weather History Graph

Search for Another Location

Airport or City:

Trip Planner

Search our weather history database for the weather conditions in past years. The results will help you decide how hot, cold, wet, or windy it might be!

Date:

Astronomy

Dec. 05, 2013 Rise Set
Actual Time 6:38 AM CST 4:27 PM CST
Civil Twilight 6:09 AM CST 4:55 PM CST
Nautical Twilight 5:37 AM CST 5:27 PM CST
Astronomical Twilight 5:06 AM CST 5:58 PM CST
Moon 9:00 AM CST (12/5) 7:44 PM CST (12/5)
Length of Visible Light 10h 46m
Length of Day
9h 49m
Waxing Crescent, 11% of the Moon is Illuminated
Dec 5
Waxing Crescent
Dec 9
First Quarter
Dec 17
Full
Dec 25
Last Quarter
Jan 1
New

Hourly Weather History & Observations

Time (CST) Temp. Windchill Dew Point Humidity Pressure Visibility Wind Dir Wind Speed Gust Speed Precip Events Conditions
12:35 AM 64.4 °F - 59.0 °F 83% 29.93 in 10.0 mi South 3.5 mph - N/A   Unknown
12:55 AM 64.4 °F - 59.0 °F 83% 29.92 in 10.0 mi South 6.9 mph - N/A   Overcast
1:15 AM 64.4 °F - 59.0 °F 83% 29.92 in 10.0 mi South 6.9 mph - N/A   Unknown
1:35 AM 64.4 °F - 59.0 °F 83% 29.93 in 10.0 mi South 5.8 mph - N/A   Mostly Cloudy
1:55 AM 64.4 °F - 59.0 °F 83% 29.93 in 10.0 mi South 6.9 mph - N/A   Mostly Cloudy
2:15 AM 64.4 °F - 59.0 °F 83% 29.94 in 10.0 mi South 5.8 mph - N/A   Overcast
2:35 AM 64.4 °F - 59.0 °F 83% 29.94 in 10.0 mi WSW 6.9 mph - N/A   Overcast
2:55 AM 64.4 °F - 59.0 °F 83% 29.95 in 10.0 mi SSW 5.8 mph - N/A   Unknown
3:15 AM 64.4 °F - 59.0 °F 83% 29.94 in 10.0 mi SSW 6.9 mph - N/A   Overcast
3:35 AM 64.4 °F - 59.0 °F 83% 29.94 in 10.0 mi South 5.8 mph - N/A   Overcast
3:55 AM 64.4 °F - 59.0 °F 83% 29.94 in 10.0 mi South 6.9 mph - N/A   Unknown
4:15 AM 64.4 °F - 59.0 °F 83% 29.95 in 10.0 mi SSW 6.9 mph - N/A   Overcast
4:35 AM 64.4 °F - 59.0 °F 83% 29.95 in 10.0 mi South 6.9 mph - N/A   Overcast
4:55 AM 64.4 °F - 59.0 °F 83% 29.95 in 10.0 mi South 6.9 mph - N/A   Overcast
5:15 AM 64.4 °F - 59.0 °F 83% 29.96 in 10.0 mi South 6.9 mph - N/A   Mostly Cloudy
5:35 AM 64.4 °F - 59.0 °F 83% 29.96 in 10.0 mi South 4.6 mph - N/A   Mostly Cloudy
5:55 AM 64.4 °F - 60.8 °F 88% 29.95 in 10.0 mi South 6.9 mph - N/A   Overcast
6:15 AM 64.4 °F - 59.0 °F 83% 29.95 in 10.0 mi South 5.8 mph - N/A   Unknown
6:35 AM 64.4 °F - 59.0 °F 83% 29.96 in 10.0 mi South 5.8 mph - N/A   Overcast
6:55 AM 64.4 °F - 59.0 °F 83% 29.96 in 10.0 mi South 5.8 mph - N/A   Unknown
7:15 AM 64.4 °F - 59.0 °F 83% 29.97 in 10.0 mi South 4.6 mph - N/A   Overcast
7:35 AM 64.4 °F - 60.8 °F 88% 29.97 in 10.0 mi South 5.8 mph - N/A   Overcast
7:55 AM 66.2 °F - 60.8 °F 83% 29.97 in 10.0 mi South 4.6 mph - N/A   Overcast
8:15 AM 66.2 °F - 60.8 °F 83% 29.98 in 10.0 mi South 6.9 mph - N/A   Overcast
8:35 AM 66.2 °F - 60.8 °F 83% 29.98 in 10.0 mi South 6.9 mph - N/A   Overcast
8:55 AM 66.2 °F - 60.8 °F 83% 29.98 in 10.0 mi South 6.9 mph - N/A   Overcast
9:15 AM 66.2 °F - 60.8 °F 83% 29.98 in 10.0 mi South 6.9 mph - N/A   Overcast
9:35 AM 66.2 °F - 60.8 °F 83% 29.99 in 10.0 mi SW 8.1 mph - N/A   Overcast
9:55 AM 66.2 °F - 62.6 °F 88% 29.98 in 10.0 mi SSW 5.8 mph - N/A   Overcast
10:15 AM 66.2 °F - 62.6 °F 88% 29.98 in 10.0 mi SSW 10.4 mph - N/A   Mostly Cloudy
10:35 AM 68.0 °F - 62.6 °F 83% 29.97 in 10.0 mi SSW 6.9 mph - N/A   Partly Cloudy
10:55 AM 69.8 °F - 62.6 °F 78% 29.96 in 10.0 mi SSW 6.9 mph - N/A   Unknown
11:15 AM 69.8 °F - 62.6 °F 78% 29.96 in 9.0 mi SW 12.7 mph - N/A   Mostly Cloudy
11:35 AM 69.8 °F - 62.6 °F 78% 29.95 in 10.0 mi SW 12.7 mph - N/A   Mostly Cloudy
11:55 AM 69.8 °F - 62.6 °F 78% 29.94 in 10.0 mi SW 13.8 mph - N/A   Overcast
12:15 PM 69.8 °F - 62.6 °F 78% 29.93 in 10.0 mi SSW 11.5 mph - N/A   Mostly Cloudy
12:35 PM 69.8 °F - 62.6 °F 78% 29.91 in 10.0 mi SSW 8.1 mph - N/A   Unknown
12:55 PM 69.8 °F - 62.6 °F 78% 29.91 in 10.0 mi SW 8.1 mph - N/A   Partly Cloudy
1:15 PM 69.8 °F - 64.4 °F 83% 29.91 in 3.0 mi SSW 9.2 mph - N/A   Mostly Cloudy
1:35 PM 66.2 °F - 64.4 °F 94% 29.90 in 9.0 mi SSW 6.9 mph - N/A   Unknown
1:55 PM 66.2 °F - 64.4 °F 94% 29.91 in 3.0 mi Calm Calm - N/A   Overcast
2:15 PM 60.8 °F - 59.0 °F 94% 29.91 in 10.0 mi North 5.8 mph - N/A   Overcast
2:35 PM 55.4 °F - 55.4 °F 100% 29.92 in 10.0 mi North 6.9 mph - N/A   Overcast
2:55 PM 55.4 °F - 53.6 °F 94% 29.93 in 8.0 mi NNW 8.1 mph - N/A   Overcast
3:15 PM 53.6 °F - 51.8 °F 94% 29.94 in 9.0 mi North 5.8 mph - N/A   Overcast
3:35 PM 51.8 °F - 50.0 °F 94% 29.95 in 10.0 mi North 4.6 mph - N/A   Unknown
3:55 PM 51.8 °F - 50.0 °F 94% 29.95 in 10.0 mi NNW 5.8 mph - N/A   Overcast
4:15 PM 51.8 °F - 50.0 °F 94% 29.96 in 10.0 mi NNW 4.6 mph - N/A   Overcast
4:35 PM 50.0 °F - 48.2 °F 94% 29.97 in 10.0 mi North 9.2 mph - N/A   Overcast
4:55 PM 48.2 °F - 48.2 °F 100% 29.97 in 10.0 mi North 10.4 mph - N/A   Overcast
5:15 PM 48.2 °F - 46.4 °F 93% 29.98 in 10.0 mi North 11.5 mph - N/A   Overcast
5:35 PM 46.4 °F 42.9 °F 46.4 °F 100% 29.98 in 10.0 mi North 6.9 mph - N/A   Overcast
5:55 PM 46.4 °F 43.5 °F 46.4 °F 100% 29.97 in 6.0 mi NNE 5.8 mph - N/A   Overcast
6:15 PM 46.4 °F 45.2 °F 44.6 °F 93% 29.97 in 4.0 mi Variable 3.5 mph - N/A   Overcast
6:35 PM 46.4 °F 44.3 °F 44.6 °F 93% 29.97 in 4.0 mi North 4.6 mph - N/A   Overcast
6:55 PM 44.6 °F 39.2 °F 44.6 °F 100% 30.02 in 4.0 mi WNW 10.4 mph - N/A   Overcast
7:15 PM 44.6 °F 40.2 °F 42.8 °F 93% 30.01 in 3.0 mi North 8.1 mph - N/A   Overcast
7:35 PM 44.6 °F 40.2 °F 42.8 °F 93% 30.02 in 6.0 mi North 8.1 mph - N/A   Overcast
7:55 PM 44.6 °F 40.7 °F 42.8 °F 93% 30.01 in 7.0 mi North 6.9 mph - N/A   Overcast
8:15 PM 42.8 °F 38.0 °F 42.8 °F 100% 30.02 in 4.0 mi North 8.1 mph - N/A   Overcast
8:35 PM 42.8 °F 38.6 °F 42.8 °F 100% 30.03 in 4.0 mi NNE 6.9 mph - N/A   Overcast
8:55 PM 42.8 °F 39.3 °F 39.2 °F 87% 30.03 in 9.0 mi Variable 5.8 mph - N/A   Overcast
9:15 PM 42.8 °F 41.1 °F 39.2 °F 87% 30.05 in 10.0 mi Variable 3.5 mph - N/A   Overcast
9:35 PM 41.0 °F 39.0 °F 39.2 °F 93% 30.06 in 10.0 mi Variable 3.5 mph - N/A   Overcast
9:55 PM 41.0 °F 39.0 °F 39.2 °F 93% 30.04 in 10.0 mi NNE 3.5 mph - N/A   Overcast
10:15 PM 41.0 °F - 39.2 °F 93% 30.04 in 10.0 mi Calm Calm - N/A   Overcast
10:35 PM 41.0 °F - 39.2 °F 93% 30.03 in 10.0 mi Calm Calm - N/A   Overcast
10:55 PM 42.8 °F - 39.2 °F 87% 30.04 in 10.0 mi Calm Calm - N/A   Overcast
11:15 PM 42.8 °F 40.1 °F 39.2 °F 87% 30.05 in 10.0 mi NNW 4.6 mph - N/A   Overcast
11:35 PM 41.0 °F 38.0 °F 39.2 °F 93% 30.05 in 4.0 mi North 4.6 mph - N/A   Overcast
11:55 PM 41.0 °F 38.0 °F 39.2 °F 93% 30.03 in 2.5 mi Variable 4.6 mph - N/A   Overcast